Time,TemperatureF,DewpointF,PressureIn,WindDirection,WindDirectionDegrees,WindSpeedMPH,WindSpeedGustMPH,Humidity,HourlyPrecipIn,Conditions,Clouds,dailyrainin,SoftwareType,DateUTC
2013-03-28 00:00:00,24.2,21.7,30.17,SE,128,0.0,0.0,90,0.00,,,0.00,Wunderground v.1.15,2013-03-28 05:00:00,
2013-03-28 00:10:00,23.8,21.3,30.17,SE,128,0.0,0.0,90,0.00,,,0.00,Wunderground v.1.15,2013-03-28 05:10:00,
2013-03-28 00:15:00,23.6,21.1,30.17,SE,128,0.0,0.0,90,0.00,,,0.00,Wunderground v.1.15,2013-03-28 05:15:00,
2013-03-28 00:20:00,23.3,20.8,30.17,SE,128,0.0,0.0,90,0.00,,,0.00,Wunderground v.1.15,2013-03-28 05:20:00,
2013-03-28 00:25:00,23.2,20.7,30.16,SE,128,0.0,0.0,90,0.00,,,0.00,Wunderground v.1.15,2013-03-28 05:25:00,
2013-03-28 00:30:00,23.1,20.6,30.16,SE,128,0.0,0.0,90,0.00,,,0.00,Wunderground v.1.15,2013-03-28 05:30:00,
2013-03-28 00:35:00,23.0,20.5,30.16,SE,128,0.0,1.0,90,0.00,,,0.00,Wunderground v.1.15,2013-03-28 05:35:00,
2013-03-28 00:45:00,22.9,20.4,30.16,SE,128,1.0,1.0,90,0.00,,,0.00,Wunderground v.1.15,2013-03-28 05:45:00,
2013-03-28 00:50:00,22.8,20.3,30.16,SE,128,0.0,0.0,90,0.00,,,0.00,Wunderground v.1.15,2013-03-28 05:50:00,
2013-03-28 00:55:00,22.7,20.2,30.16,SE,128,0.0,0.0,90,0.00,,,0.00,Wunderground v.1.15,2013-03-28 05:55:00,
2013-03-28 01:00:00,22.6,20.1,30.16,SE,128,0.0,0.0,90,0.00,,,0.00,Wunderground v.1.15,2013-03-28 06:00:00,
2013-03-28 01:10:00,22.6,20.1,30.16,SE,128,0.0,0.0,90,0.00,,,0.00,Wunderground v.1.15,2013-03-28 06:10:00,
2013-03-28 01:20:00,22.8,20.6,30.16,SE,128,0.0,0.0,91,0.00,,,0.00,Wunderground v.1.15,2013-03-28 06:20:00,
2013-03-28 01:25:00,22.7,20.2,30.16,SE,128,0.0,0.0,90,0.00,,,0.00,Wunderground v.1.15,2013-03-28 06:25:00,
2013-03-28 01:35:00,22.5,20.3,30.16,SE,128,0.0,0.0,91,0.00,,,0.00,Wunderground v.1.15,2013-03-28 06:35:00,
2013-03-28 01:40:00,22.5,20.3,30.16,SE,128,0.0,0.0,91,0.00,,,0.00,Wunderground v.1.15,2013-03-28 06:40:00,
2013-03-28 01:45:00,22.4,20.2,30.16,SE,128,0.0,0.0,91,0.00,,,0.00,Wunderground v.1.15,2013-03-28 06:45:00,
2013-03-28 01:50:00,22.5,20.3,30.16,SE,128,0.0,0.0,91,0.00,,,0.00,Wunderground v.1.15,2013-03-28 06:50:00,
2013-03-28 01:55:00,22.4,20.2,30.16,SE,128,0.0,0.0,91,0.00,,,0.00,Wunderground v.1.15,2013-03-28 06:55:00,
2013-03-28 02:00:00,22.4,20.2,30.16,SE,128,0.0,0.0,91,0.00,,,0.00,Wunderground v.1.15,2013-03-28 07:00:00,
2013-03-28 02:10:00,22.3,20.1,30.16,SE,128,0.0,0.0,91,0.00,,,0.00,Wunderground v.1.15,2013-03-28 07:10:00,
2013-03-28 02:15:00,22.1,19.9,30.16,SE,128,0.0,0.0,91,0.00,,,0.00,Wunderground v.1.15,2013-03-28 07:15:00,
2013-03-28 02:20:00,22.1,19.9,30.16,SE,128,0.0,0.0,91,0.00,,,0.00,Wunderground v.1.15,2013-03-28 07:20:00,
2013-03-28 02:25:00,22.0,19.8,30.16,SE,128,0.0,0.0,91,0.00,,,0.00,Wunderground v.1.15,2013-03-28 07:25:00,
2013-03-28 02:30:00,22.1,19.9,30.16,SE,128,0.0,0.0,91,0.00,,,0.00,Wunderground v.1.15,2013-03-28 07:30:00,
2013-03-28 02:35:00,22.1,19.9,30.16,SE,128,0.0,0.0,91,0.00,,,0.00,Wunderground v.1.15,2013-03-28 07:35:00,
2013-03-28 02:40:00,22.0,19.8,30.16,SE,128,0.0,0.0,91,0.00,,,0.00,Wunderground v.1.15,2013-03-28 07:40:00,
2013-03-28 02:50:00,21.3,19.1,30.16,SE,128,0.0,0.0,91,0.00,,,0.00,Wunderground v.1.15,2013-03-28 07:50:00,
2013-03-28 02:55:00,21.2,19.0,30.16,SE,128,0.0,0.0,91,0.00,,,0.00,Wunderground v.1.15,2013-03-28 07:55:00,
2013-03-28 03:00:00,21.3,19.1,30.16,SE,128,0.0,0.0,91,0.00,,,0.00,Wunderground v.1.15,2013-03-28 08:00:00,
2013-03-28 03:10:00,21.5,19.3,30.16,SE,128,0.0,0.0,91,0.00,,,0.00,Wunderground v.1.15,2013-03-28 08:10:00,
2013-03-28 03:15:00,21.6,19.4,30.16,SE,128,0.0,0.0,91,0.00,,,0.00,Wunderground v.1.15,2013-03-28 08:15:00,
2013-03-28 03:25:00,21.9,19.7,30.16,SE,128,0.0,0.0,91,0.00,,,0.00,Wunderground v.1.15,2013-03-28 08:25:00,
2013-03-28 03:30:00,22.1,19.9,30.16,SE,128,0.0,0.0,91,0.00,,,0.00,Wunderground v.1.15,2013-03-28 08:30:00,
2013-03-28 03:35:00,22.2,20.0,30.16,SE,128,0.0,0.0,91,0.00,,,0.00,Wunderground v.1.15,2013-03-28 08:35:00,
2013-03-28 03:40:00,22.3,20.1,30.16,SE,128,0.0,0.0,91,0.00,,,0.00,Wunderground v.1.15,2013-03-28 08:40:00,
2013-03-28 03:50:00,22.6,20.6,30.16,SE,128,0.0,0.0,92,0.00,,,0.00,Wunderground v.1.15,2013-03-28 08:50:00,
2013-03-28 04:00:00,22.6,20.4,30.16,SE,128,0.0,0.0,91,0.00,,,0.00,Wunderground v.1.15,2013-03-28 09:00:00,
2013-03-28 04:10:00,22.7,20.5,30.16,SE,128,0.0,0.0,91,0.00,,,0.00,Wunderground v.1.15,2013-03-28 09:10:00,
2013-03-28 04:15:00,23.2,21.2,30.16,SE,128,0.0,0.0,92,0.00,,,0.00,Wunderground v.1.15,2013-03-28 09:15:00,
2013-03-28 04:20:00,23.7,21.7,30.16,SE,128,1.0,1.0,92,0.00,,,0.00,Wunderground v.1.15,2013-03-28 09:20:00,
2013-03-28 04:30:00,24.2,22.2,30.15,SE,128,1.0,1.0,92,0.00,,,0.00,Wunderground v.1.15,2013-03-28 09:30:00,
2013-03-28 04:40:00,24.0,22.0,30.15,SE,128,1.0,1.0,92,0.00,,,0.00,Wunderground v.1.15,2013-03-28 09:40:00,
2013-03-28 04:45:00,23.9,21.9,30.15,SE,128,1.0,1.0,92,0.00,,,0.00,Wunderground v.1.15,2013-03-28 09:45:00,
2013-03-28 04:50:00,23.7,21.5,30.15,SE,128,0.0,0.0,91,0.00,,,0.00,Wunderground v.1.15,2013-03-28 09:50:00,
2013-03-28 04:55:00,23.6,21.6,30.14,SE,128,0.0,1.0,92,0.00,,,0.00,Wunderground v.1.15,2013-03-28 09:55:00,
2013-03-28 05:00:00,23.6,21.6,30.14,SE,128,0.0,0.0,92,0.00,,,0.00,Wunderground v.1.15,2013-03-28 10:00:00,
2013-03-28 05:10:00,23.5,21.5,30.14,SE,128,0.0,0.0,92,0.00,,,0.00,Wunderground v.1.15,2013-03-28 10:10:00,
2013-03-28 05:15:00,23.5,21.5,30.14,SE,128,0.0,0.0,92,0.00,,,0.00,Wunderground v.1.15,2013-03-28 10:15:00,
2013-03-28 05:20:00,23.3,21.1,30.14,SE,128,0.0,0.0,91,0.00,,,0.00,Wunderground v.1.15,2013-03-28 10:20:00,
2013-03-28 05:25:00,23.1,20.9,30.14,SE,128,0.0,0.0,91,0.00,,,0.00,Wunderground v.1.15,2013-03-28 10:25:00,
2013-03-28 05:30:00,22.9,20.7,30.14,SE,128,0.0,0.0,91,0.00,,,0.00,Wunderground v.1.15,2013-03-28 10:30:00,
2013-03-28 05:35:00,22.7,20.5,30.14,SE,128,0.0,0.0,91,0.00,,,0.00,Wunderground v.1.15,2013-03-28 10:35:00,
2013-03-28 05:40:00,22.6,20.4,30.14,SE,128,0.0,0.0,91,0.00,,,0.00,Wunderground v.1.15,2013-03-28 10:40:00,
2013-03-28 05:50:00,22.5,20.3,30.14,SE,128,0.0,0.0,91,0.00,,,0.00,Wunderground v.1.15,2013-03-28 10:50:00,
2013-03-28 05:55:00,22.3,20.1,30.14,SE,128,0.0,0.0,91,0.00,,,0.00,Wunderground v.1.15,2013-03-28 10:55:00,
2013-03-28 06:00:00,22.4,20.2,30.14,SE,128,0.0,0.0,91,0.00,,,0.00,Wunderground v.1.15,2013-03-28 11:00:00,
2013-03-28 06:10:00,22.3,20.1,30.14,SE,128,0.0,0.0,91,0.00,,,0.00,Wunderground v.1.15,2013-03-28 11:10:00,
2013-03-28 06:15:00,22.2,20.0,30.14,SE,128,0.0,0.0,91,0.00,,,0.00,Wunderground v.1.15,2013-03-28 11:15:00,
2013-03-28 06:20:00,22.1,19.9,30.14,SE,128,0.0,0.0,91,0.00,,,0.00,Wunderground v.1.15,2013-03-28 11:20:00,
2013-03-28 06:25:00,21.9,19.7,30.14,SE,128,0.0,0.0,91,0.00,,,0.00,Wunderground v.1.15,2013-03-28 11:25:00,
2013-03-28 06:30:00,21.6,19.4,30.13,SE,128,0.0,0.0,91,0.00,,,0.00,Wunderground v.1.15,2013-03-28 11:30:00,
2013-03-28 06:40:00,21.2,19.0,30.14,SE,128,0.0,0.0,91,0.00,,,0.00,Wunderground v.1.15,2013-03-28 11:40:00,
2013-03-28 06:45:00,21.1,18.9,30.14,SE,128,0.0,0.0,91,0.00,,,0.00,Wunderground v.1.15,2013-03-28 11:45:00,
2013-03-28 06:50:00,21.0,18.8,30.14,SE,128,0.0,0.0,91,0.00,,,0.00,Wunderground v.1.15,2013-03-28 11:50:00,
2013-03-28 06:55:00,20.8,18.6,30.14,SE,128,0.0,0.0,91,0.00,,,0.00,Wunderground v.1.15,2013-03-28 11:55:00,
2013-03-28 07:00:00,20.7,18.5,30.14,SE,128,0.0,0.0,91,0.00,,,0.00,Wunderground v.1.15,2013-03-28 12:00:00,
2013-03-28 07:10:00,20.6,18.4,30.14,SE,128,0.0,0.0,91,0.00,,,0.00,Wunderground v.1.15,2013-03-28 12:10:00,
2013-03-28 07:15:00,20.8,18.6,30.14,SE,128,0.0,0.0,91,0.00,,,0.00,Wunderground v.1.15,2013-03-28 12:15:00,
2013-03-28 07:20:00,20.7,18.5,30.14,SE,128,0.0,0.0,91,0.00,,,0.00,Wunderground v.1.15,2013-03-28 12:20:00,
2013-03-28 07:25:00,20.7,18.5,30.14,SE,128,0.0,0.0,91,0.00,,,0.00,Wunderground v.1.15,2013-03-28 12:25:00,
2013-03-28 07:30:00,20.6,18.4,30.14,SE,128,0.0,0.0,91,0.00,,,0.00,Wunderground v.1.15,2013-03-28 12:30:00,
2013-03-28 07:35:00,20.5,18.3,30.14,SE,128,0.0,0.0,91,0.00,,,0.00,Wunderground v.1.15,2013-03-28 12:35:00,
2013-03-28 07:40:00,20.5,18.3,30.14,SE,128,0.0,0.0,91,0.00,,,0.00,Wunderground v.1.15,2013-03-28 12:40:00,
2013-03-28 07:45:00,20.5,18.3,30.14,SE,128,0.0,0.0,91,0.00,,,0.00,Wunderground v.1.15,2013-03-28 12:45:00,
2013-03-28 07:55:00,20.4,18.2,30.14,SE,128,0.0,0.0,91,0.00,,,0.00,Wunderground v.1.15,2013-03-28 12:55:00,
2013-03-28 08:00:00,20.4,18.2,30.14,SE,128,0.0,0.0,91,0.00,,,0.00,Wunderground v.1.15,2013-03-28 13:00:00,
2013-03-28 08:10:00,20.5,18.3,30.14,SE,128,0.0,0.0,91,0.00,,,0.00,Wunderground v.1.15,2013-03-28 13:10:00,
2013-03-28 08:20:00,21.4,19.2,30.14,SE,128,0.0,0.0,91,0.00,,,0.00,Wunderground v.1.15,2013-03-28 13:20:00,
2013-03-28 08:25:00,22.1,20.1,30.14,SE,128,0.0,1.0,92,0.00,,,0.00,Wunderground v.1.15,2013-03-28 13:25:00,
2013-03-28 08:30:00,23.2,21.2,30.14,SE,128,1.0,1.0,92,0.00,,,0.00,Wunderground v.1.15,2013-03-28 13:30:00,
2013-03-28 08:35:00,24.0,22.0,30.14,SE,128,1.0,1.0,92,0.00,,,0.00,Wunderground v.1.15,2013-03-28 13:35:00,
2013-03-28 08:40:00,24.8,22.8,30.14,SE,128,2.0,2.0,92,0.00,,,0.00,Wunderground v.1.15,2013-03-28 13:40:00,
2013-03-28 08:45:00,25.4,23.4,30.14,SE,128,2.0,3.0,92,0.00,,,0.00,Wunderground v.1.15,2013-03-28 13:45:00,
2013-03-28 08:50:00,26.2,24.2,30.14,SE,128,2.0,2.0,92,0.00,,,0.00,Wunderground v.1.15,2013-03-28 13:50:00,
2013-03-28 08:55:00,26.6,24.6,30.15,SE,128,1.0,2.0,92,0.00,,,0.00,Wunderground v.1.15,2013-03-28 13:55:00,
2013-03-28 09:00:00,27.1,25.1,30.15,SE,128,1.0,1.0,92,0.00,,,0.00,Wunderground v.1.15,2013-03-28 14:00:00,
2013-03-28 09:10:00,28.0,25.7,30.15,SE,128,2.0,2.0,91,0.00,,,0.00,Wunderground v.1.15,2013-03-28 14:10:00,
2013-03-28 09:15:00,28.2,25.6,30.14,SE,128,2.0,2.0,90,0.00,,,0.00,Wunderground v.1.15,2013-03-28 14:15:00,
2013-03-28 09:20:00,28.2,25.6,30.14,SE,128,2.0,2.0,90,0.00,,,0.00,Wunderground v.1.15,2013-03-28 14:20:00,
2013-03-28 09:25:00,28.7,26.1,30.14,ESE,123,2.0,2.0,90,0.00,,,0.00,Wunderground v.1.15,2013-03-28 14:25:00,
2013-03-28 09:35:00,29.7,27.1,30.14,ESE,113,2.0,2.0,90,0.00,,,0.00,Wunderground v.1.15,2013-03-28 14:35:00,
2013-03-28 09:40:00,30.3,27.4,30.15,ESE,114,2.0,2.0,89,0.00,,,0.00,Wunderground v.1.15,2013-03-28 14:40:00,
2013-03-28 09:45:00,30.7,27.8,30.14,ESE,103,3.0,3.0,89,0.00,,,0.00,Wunderground v.1.15,2013-03-28 14:45:00,
2013-03-28 09:50:00,31.1,28.0,30.14,ESE,107,3.0,4.0,88,0.00,,,0.00,Wunderground v.1.15,2013-03-28 14:50:00,
2013-03-28 09:55:00,31.5,28.4,30.15,ESE,107,3.0,4.0,88,0.00,,,0.00,Wunderground v.1.15,2013-03-28 14:55:00,
2013-03-28 10:00:00,31.9,28.8,30.14,East,96,3.0,3.0,88,0.00,,,0.00,Wunderground v.1.15,2013-03-28 15:00:00,
2013-03-28 10:10:00,33.1,29.9,30.15,East,92,2.0,3.0,88,0.00,,,0.00,Wunderground v.1.15,2013-03-28 15:10:00,
2013-03-28 10:15:00,33.7,30.0,30.15,East,98,2.0,4.0,86,0.00,,,0.00,Wunderground v.1.15,2013-03-28 15:15:00,
2013-03-28 10:20:00,33.9,29.9,30.15,East,96,3.0,3.0,85,0.00,,,0.00,Wunderground v.1.15,2013-03-28 15:20:00,
2013-03-28 10:25:00,34.4,30.4,30.14,East,98,3.0,5.0,85,0.00,,,0.00,Wunderground v.1.15,2013-03-28 15:25:00,
2013-03-28 10:30:00,34.6,30.3,30.14,SE,127,3.0,3.0,84,0.00,,,0.00,Wunderground v.1.15,2013-03-28 15:30:00,
2013-03-28 10:35:00,35.1,30.8,30.15,ESE,104,2.0,3.0,84,0.00,,,0.00,Wunderground v.1.15,2013-03-28 15:35:00,
2013-03-28 10:45:00,35.3,30.7,30.14,ESE,119,3.0,6.0,83,0.00,,,0.00,Wunderground v.1.15,2013-03-28 15:45:00,
2013-03-28 10:50:00,35.6,30.9,30.14,ESE,117,3.0,3.0,83,0.00,,,0.00,Wunderground v.1.15,2013-03-28 15:50:00,
2013-03-28 10:55:00,36.3,31.3,30.14,ESE,113,3.0,3.0,82,0.00,,,0.00,Wunderground v.1.15,2013-03-28 15:55:00,
2013-03-28 11:00:00,36.5,31.2,30.14,SE,136,3.0,3.0,81,0.00,,,0.00,Wunderground v.1.15,2013-03-28 16:00:00,
2013-03-28 11:10:00,37.3,32.0,30.14,SSE,160,3.0,3.0,81,0.00,,,0.00,Wunderground v.1.15,2013-03-28 16:10:00,
2013-03-28 11:15:00,38.1,32.2,30.15,SE,146,3.0,5.0,79,0.00,,,0.00,Wunderground v.1.15,2013-03-28 16:15:00,
2013-03-28 11:20:00,38.9,32.6,30.14,ESE,120,3.0,4.0,78,0.00,,,0.00,Wunderground v.1.15,2013-03-28 16:20:00,
2013-03-28 11:25:00,39.4,33.4,30.14,SSE,155,2.0,4.0,79,0.00,,,0.00,Wunderground v.1.15,2013-03-28 16:25:00,
2013-03-28 11:30:00,39.8,33.5,30.14,East,101,2.0,2.0,78,0.00,,,0.00,Wunderground v.1.15,2013-03-28 16:30:00,
2013-03-28 11:35:00,40.2,33.2,30.14,East,84,3.0,3.0,76,0.00,,,0.00,Wunderground v.1.15,2013-03-28 16:35:00,
2013-03-28 11:40:00,40.6,33.6,30.14,ENE,76,3.0,3.0,76,0.00,,,0.00,Wunderground v.1.15,2013-03-28 16:40:00,
2013-03-28 11:45:00,41.6,34.9,30.14,East,82,2.0,3.0,77,0.00,,,0.00,Wunderground v.1.15,2013-03-28 16:45:00,
2013-03-28 11:50:00,42.2,35.2,30.15,ESE,103,1.0,4.0,76,0.00,,,0.00,Wunderground v.1.15,2013-03-28 16:50:00,
2013-03-28 11:55:00,42.5,34.5,30.14,East,92,2.0,4.0,73,0.00,,,0.00,Wunderground v.1.15,2013-03-28 16:55:00,
2013-03-28 12:00:00,42.6,34.9,30.14,East,91,2.0,2.0,74,0.00,,,0.00,Wunderground v.1.15,2013-03-28 17:00:00,
2013-03-28 12:10:00,43.5,35.1,30.14,East,82,2.0,4.0,72,0.00,,,0.00,Wunderground v.1.15,2013-03-28 17:10:00,
2013-03-28 12:15:00,43.7,34.9,30.14,ESE,103,3.0,4.0,71,0.00,,,0.00,Wunderground v.1.15,2013-03-28 17:15:00,
2013-03-28 12:20:00,44.0,34.1,30.14,ENE,77,4.0,4.0,68,0.00,,,0.00,Wunderground v.1.15,2013-03-28 17:20:00,
2013-03-28 12:25:00,44.5,34.2,30.14,ESE,105,4.0,4.0,67,0.00,,,0.00,Wunderground v.1.15,2013-03-28 17:25:00,
2013-03-28 12:30:00,45.2,34.9,30.14,East,84,3.0,3.0,67,0.00,,,0.00,Wunderground v.1.15,2013-03-28 17:30:00,
2013-03-28 12:35:00,46.0,35.3,30.13,ESE,114,3.0,5.0,66,0.00,,,0.00,Wunderground v.1.15,2013-03-28 17:35:00,
2013-03-28 12:45:00,46.4,34.5,30.13,ESE,105,4.0,6.0,63,0.00,,,0.00,Wunderground v.1.15,2013-03-28 17:45:00,
2013-03-28 12:50:00,46.7,34.4,30.13,East,101,4.0,4.0,62,0.00,,,0.00,Wunderground v.1.15,2013-03-28 17:50:00,
2013-03-28 12:55:00,47.0,34.6,30.13,ESE,119,5.0,5.0,62,0.00,,,0.00,Wunderground v.1.15,2013-03-28 17:55:00,
2013-03-28 13:00:00,47.3,34.9,30.13,East,101,4.0,6.0,62,0.00,,,0.00,Wunderground v.1.15,2013-03-28 18:00:00,
2013-03-28 13:10:00,47.6,33.1,30.13,East,95,5.0,7.0,57,0.00,,,0.00,Wunderground v.1.15,2013-03-28 18:10:00,
2013-03-28 13:15:00,47.5,32.6,30.13,East,86,5.0,7.0,56,0.00,,,0.00,Wunderground v.1.15,2013-03-28 18:15:00,
2013-03-28 13:20:00,47.3,33.7,30.12,ESE,103,5.0,5.0,59,0.00,,,0.00,Wunderground v.1.15,2013-03-28 18:20:00,
2013-03-28 13:25:00,47.7,32.8,30.12,East,99,5.0,5.0,56,0.00,,,0.00,Wunderground v.1.15,2013-03-28 18:25:00,
2013-03-28 13:30:00,48.0,32.1,30.12,East,98,5.0,5.0,54,0.00,,,0.00,Wunderground v.1.15,2013-03-28 18:30:00,
2013-03-28 13:35:00,48.2,31.9,30.12,ESE,117,4.0,5.0,53,0.00,,,0.00,Wunderground v.1.15,2013-03-28 18:35:00,
2013-03-28 13:40:00,48.4,33.4,30.12,East,89,5.0,5.0,56,0.00,,,0.00,Wunderground v.1.15,2013-03-28 18:40:00,
2013-03-28 13:45:00,48.6,34.0,30.12,ESE,114,4.0,5.0,57,0.00,,,0.00,Wunderground v.1.15,2013-03-28 18:45:00,
2013-03-28 13:50:00,48.8,33.8,30.11,ESE,117,4.0,4.0,56,0.00,,,0.00,Wunderground v.1.15,2013-03-28 18:50:00,
2013-03-28 13:55:00,48.7,33.2,30.11,ESE,105,4.0,6.0,55,0.00,,,0.00,Wunderground v.1.15,2013-03-28 18:55:00,
2013-03-28 14:00:00,48.9,32.5,30.11,ESE,102,5.0,5.0,53,0.00,,,0.00,Wunderground v.1.15,2013-03-28 19:00:00,
2013-03-28 14:10:00,49.4,32.5,30.11,East,83,5.0,5.0,52,0.00,,,0.00,Wunderground v.1.15,2013-03-28 19:10:00,
2013-03-28 14:15:00,49.4,32.0,30.11,ESE,123,5.0,5.0,51,0.00,,,0.00,Wunderground v.1.15,2013-03-28 19:15:00,
2013-03-28 14:20:00,49.7,33.2,30.11,ENE,78,5.0,7.0,53,0.00,,,0.00,Wunderground v.1.15,2013-03-28 19:20:00,
2013-03-28 14:25:00,50.0,33.5,30.11,ENE,75,5.0,7.0,53,0.00,,,0.00,Wunderground v.1.15,2013-03-28 19:25:00,
2013-03-28 14:30:00,50.1,32.7,30.11,East,89,5.0,5.0,51,0.00,,,0.00,Wunderground v.1.15,2013-03-28 19:30:00,
2013-03-28 14:40:00,50.5,33.5,30.11,East,90,5.0,7.0,52,0.00,,,0.00,Wunderground v.1.15,2013-03-28 19:40:00,
2013-03-28 14:45:00,50.6,33.1,30.11,SE,129,5.0,7.0,51,0.00,,,0.00,Wunderground v.1.15,2013-03-28 19:45:00,
2013-03-28 14:50:00,50.8,33.8,30.10,SE,129,5.0,10.0,52,0.00,,,0.00,Wunderground v.1.15,2013-03-28 19:50:00,
2013-03-28 14:55:00,51.1,32.6,30.10,SSE,148,5.0,10.0,49,0.00,,,0.00,Wunderground v.1.15,2013-03-28 19:55:00,
2013-03-28 15:00:00,51.3,34.3,30.10,East,82,4.0,4.0,52,0.00,,,0.00,Wunderground v.1.15,2013-03-28 20:00:00,
2013-03-28 15:10:00,51.2,33.2,30.10,East,98,5.0,5.0,50,0.00,,,0.00,Wunderground v.1.15,2013-03-28 20:10:00,
2013-03-28 15:15:00,51.2,32.7,30.10,ESE,105,5.0,5.0,49,0.00,,,0.00,Wunderground v.1.15,2013-03-28 20:15:00,
2013-03-28 15:20:00,51.3,32.8,30.10,East,83,5.0,5.0,49,0.00,,,0.00,Wunderground v.1.15,2013-03-28 20:20:00,
2013-03-28 15:25:00,51.5,33.0,30.10,ESE,121,5.0,5.0,49,0.00,,,0.00,Wunderground v.1.15,2013-03-28 20:25:00,
2013-03-28 15:30:00,51.5,33.5,30.09,East,92,4.0,6.0,50,0.00,,,0.00,Wunderground v.1.15,2013-03-28 20:30:00,
2013-03-28 15:35:00,51.5,34.4,30.09,East,89,5.0,6.0,52,0.00,,,0.00,Wunderground v.1.15,2013-03-28 20:35:00,
2013-03-28 15:40:00,51.6,33.6,30.09,SE,125,4.0,6.0,50,0.00,,,0.00,Wunderground v.1.15,2013-03-28 20:40:00,
2013-03-28 15:45:00,51.6,34.0,30.09,ESE,121,5.0,7.0,51,0.00,,,0.00,Wunderground v.1.15,2013-03-28 20:45:00,
2013-03-28 15:50:00,51.4,33.9,30.09,SE,125,5.0,8.0,51,0.00,,,0.00,Wunderground v.1.15,2013-03-28 20:50:00,
2013-03-28 15:55:00,51.4,33.9,30.09,SE,128,5.0,8.0,51,0.00,,,0.00,Wunderground v.1.15,2013-03-28 20:55:00,
2013-03-28 16:00:00,51.4,33.4,30.09,ESE,109,6.0,7.0,50,0.00,,,0.00,Wunderground v.1.15,2013-03-28 21:00:00,
2013-03-28 16:10:00,51.5,34.9,30.09,SSE,150,5.0,8.0,53,0.00,,,0.00,Wunderground v.1.15,2013-03-28 21:10:00,
2013-03-28 16:15:00,51.6,33.0,30.09,East,94,5.0,8.0,49,0.00,,,0.00,Wunderground v.1.15,2013-03-28 21:15:00,
2013-03-28 16:20:00,51.6,34.0,30.09,ESE,111,5.0,5.0,51,0.00,,,0.00,Wunderground v.1.15,2013-03-28 21:20:00,
2013-03-28 16:25:00,51.8,32.7,30.09,East,87,5.0,5.0,48,0.00,,,0.00,Wunderground v.1.15,2013-03-28 21:25:00,
2013-03-28 16:30:00,52.1,34.0,30.09,SE,136,5.0,5.0,50,0.00,,,0.00,Wunderground v.1.15,2013-03-28 21:30:00,
2013-03-28 16:40:00,52.1,32.5,30.09,ESE,109,4.0,4.0,47,0.00,,,0.00,Wunderground v.1.15,2013-03-28 21:40:00,
2013-03-28 16:45:00,52.0,32.4,30.10,East,96,4.0,4.0,47,0.00,,,0.00,Wunderground v.1.15,2013-03-28 21:45:00,
2013-03-28 16:50:00,52.0,32.9,30.10,ESE,115,5.0,6.0,48,0.00,,,0.00,Wunderground v.1.15,2013-03-28 21:50:00,
2013-03-28 16:55:00,51.8,32.7,30.09,East,84,5.0,6.0,48,0.00,,,0.00,Wunderground v.1.15,2013-03-28 21:55:00,
2013-03-28 17:00:00,51.5,33.0,30.09,ESE,102,5.0,5.0,49,0.00,,,0.00,Wunderground v.1.15,2013-03-28 22:00:00,
2013-03-28 17:10:00,51.3,33.8,30.09,East,100,5.0,5.0,51,0.00,,,0.00,Wunderground v.1.15,2013-03-28 22:10:00,
2013-03-28 17:15:00,51.3,35.2,30.09,East,100,5.0,5.0,54,0.00,,,0.00,Wunderground v.1.15,2013-03-28 22:15:00,
2013-03-28 17:20:00,51.1,35.0,30.09,East,96,4.0,7.0,54,0.00,,,0.00,Wunderground v.1.15,2013-03-28 22:20:00,
2013-03-28 17:30:00,50.6,34.1,30.09,ESE,106,4.0,4.0,53,0.00,,,0.00,Wunderground v.1.15,2013-03-28 22:30:00,
2013-03-28 17:35:00,50.6,33.1,30.09,ESE,123,4.0,8.0,51,0.00,,,0.00,Wunderground v.1.15,2013-03-28 22:35:00,
2013-03-28 17:40:00,50.3,33.3,30.09,East,95,5.0,5.0,52,0.00,,,0.00,Wunderground v.1.15,2013-03-28 22:40:00,
2013-03-28 17:45:00,50.1,33.6,30.09,ESE,115,5.0,5.0,53,0.00,,,0.00,Wunderground v.1.15,2013-03-28 22:45:00,
2013-03-28 17:50:00,50.2,33.7,30.09,East,101,5.0,5.0,53,0.00,,,0.00,Wunderground v.1.15,2013-03-28 22:50:00,
2013-03-28 17:55:00,50.0,32.6,30.09,SE,128,5.0,5.0,51,0.00,,,0.00,Wunderground v.1.15,2013-03-28 22:55:00,
2013-03-28 18:00:00,50.0,32.6,30.09,East,87,5.0,5.0,51,0.00,,,0.00,Wunderground v.1.15,2013-03-28 23:00:00,
2013-03-28 18:10:00,49.2,34.2,30.09,East,99,4.0,4.0,56,0.00,,,0.00,Wunderground v.1.15,2013-03-28 23:10:00,
2013-03-28 18:15:00,48.8,33.8,30.10,East,87,4.0,4.0,56,0.00,,,0.00,Wunderground v.1.15,2013-03-28 23:15:00,
2013-03-28 18:25:00,48.3,33.3,30.10,ESE,115,4.0,8.0,56,0.00,,,0.00,Wunderground v.1.15,2013-03-28 23:25:00,
2013-03-28 18:30:00,47.9,33.8,30.10,East,83,4.0,4.0,58,0.00,,,0.00,Wunderground v.1.15,2013-03-28 23:30:00,
2013-03-28 18:35:00,47.7,34.1,30.10,ESE,105,4.0,4.0,59,0.00,,,0.00,Wunderground v.1.15,2013-03-28 23:35:00,
2013-03-28 18:40:00,47.5,33.9,30.10,ESE,109,3.0,3.0,59,0.00,,,0.00,Wunderground v.1.15,2013-03-28 23:40:00,
2013-03-28 18:45:00,47.3,32.8,30.10,SE,126,4.0,4.0,57,0.00,,,0.00,Wunderground v.1.15,2013-03-28 23:45:00,
2013-03-28 18:50:00,47.0,32.1,30.10,ESE,103,4.0,4.0,56,0.00,,,0.00,Wunderground v.1.15,2013-03-28 23:50:00,
2013-03-28 19:00:00,46.8,31.0,30.10,ESE,111,3.0,3.0,54,0.00,,,0.00,Wunderground v.1.15,2013-03-29 00:00:00,
2013-03-28 19:10:00,46.1,30.4,30.10,ESE,109,3.0,5.0,54,0.00,,,0.00,Wunderground v.1.15,2013-03-29 00:10:00,
2013-03-28 19:15:00,45.7,30.4,30.10,East,98,3.0,5.0,55,0.00,,,0.00,Wunderground v.1.15,2013-03-29 00:15:00,
2013-03-28 19:25:00,44.8,30.9,30.10,East,92,2.0,3.0,58,0.00,,,0.00,Wunderground v.1.15,2013-03-29 00:25:00,
2013-03-28 19:30:00,44.1,31.1,30.10,ESE,105,2.0,2.0,60,0.00,,,0.00,Wunderground v.1.15,2013-03-29 00:30:00,
2013-03-28 19:35:00,43.4,31.6,30.10,East,101,3.0,3.0,63,0.00,,,0.00,Wunderground v.1.15,2013-03-29 00:35:00,
2013-03-28 19:40:00,42.7,31.7,30.10,SE,128,3.0,6.0,65,0.00,,,0.00,Wunderground v.1.15,2013-03-29 00:40:00,
2013-03-28 19:45:00,42.2,31.6,30.11,ESE,104,2.0,6.0,66,0.00,,,0.00,Wunderground v.1.15,2013-03-29 00:45:00,
2013-03-28 19:50:00,41.7,31.5,30.11,ESE,107,2.0,2.0,67,0.00,,,0.00,Wunderground v.1.15,2013-03-29 00:50:00,
2013-03-28 19:55:00,41.3,31.5,30.11,ESE,109,1.0,2.0,68,0.00,,,0.00,Wunderground v.1.15,2013-03-29 00:55:00,
2013-03-28 20:00:00,40.7,31.3,30.11,ESE,103,1.0,1.0,69,0.00,,,0.00,Wunderground v.1.15,2013-03-29 01:00:00,
2013-03-28 20:10:00,39.6,31.7,30.11,ESE,117,1.0,3.0,73,0.00,,,0.00,Wunderground v.1.15,2013-03-29 01:10:00,
2013-03-28 20:15:00,39.1,31.8,30.11,ESE,119,1.0,3.0,75,0.00,,,0.00,Wunderground v.1.15,2013-03-29 01:15:00,
2013-03-28 20:20:00,38.6,31.7,30.11,ESE,110,2.0,2.0,76,0.00,,,0.00,Wunderground v.1.15,2013-03-29 01:20:00,
2013-03-28 20:25:00,38.0,31.4,30.11,ESE,110,2.0,2.0,77,0.00,,,0.00,Wunderground v.1.15,2013-03-29 01:25:00,
2013-03-28 20:30:00,37.6,31.4,30.12,ESE,110,1.0,1.0,78,0.00,,,0.00,Wunderground v.1.15,2013-03-29 01:30:00,
2013-03-28 20:35:00,37.2,31.3,30.12,ESE,109,1.0,2.0,79,0.00,,,0.00,Wunderground v.1.15,2013-03-29 01:35:00,
2013-03-28 20:45:00,36.4,30.8,30.12,ESE,110,1.0,1.0,80,0.00,,,0.00,Wunderground v.1.15,2013-03-29 01:45:00,
2013-03-28 20:50:00,36.0,30.4,30.12,ESE,109,1.0,1.0,80,0.00,,,0.00,Wunderground v.1.15,2013-03-29 01:50:00,
2013-03-28 20:55:00,35.5,30.2,30.12,ESE,110,1.0,1.0,81,0.00,,,0.00,Wunderground v.1.15,2013-03-29 01:55:00,
2013-03-28 21:00:00,35.0,29.8,30.12,ESE,109,1.0,2.0,81,0.00,,,0.00,Wunderground v.1.15,2013-03-29 02:00:00,
2013-03-28 21:10:00,34.4,29.5,30.12,ESE,112,2.0,2.0,82,0.00,,,0.00,Wunderground v.1.15,2013-03-29 02:10:00,
2013-03-28 21:15:00,34.0,29.4,30.12,ESE,112,1.0,2.0,83,0.00,,,0.00,Wunderground v.1.15,2013-03-29 02:15:00,
2013-03-28 21:25:00,33.5,29.2,30.13,ESE,112,0.0,2.0,84,0.00,,,0.00,Wunderground v.1.15,2013-03-29 02:25:00,
2013-03-28 21:30:00,33.3,29.0,30.13,ESE,112,1.0,2.0,84,0.00,,,0.00,Wunderground v.1.15,2013-03-29 02:30:00,
2013-03-28 21:35:00,33.3,29.3,30.13,ESE,113,2.0,2.0,85,0.00,,,0.00,Wunderground v.1.15,2013-03-29 02:35:00,
2013-03-28 21:40:00,33.2,29.2,30.13,ESE,113,2.0,2.0,85,0.00,,,0.00,Wunderground v.1.15,2013-03-29 02:40:00,
2013-03-28 21:45:00,33.1,29.4,30.13,East,98,2.0,2.0,86,0.00,,,0.00,Wunderground v.1.15,2013-03-29 02:45:00,
2013-03-28 21:50:00,32.9,29.2,30.13,East,98,2.0,2.0,86,0.00,,,0.00,Wunderground v.1.15,2013-03-29 02:50:00,
2013-03-28 21:55:00,32.7,29.0,30.13,East,98,2.0,2.0,86,0.00,,,0.00,Wunderground v.1.15,2013-03-29 02:55:00,
2013-03-28 22:00:00,32.4,28.7,30.13,East,101,2.0,2.0,86,0.00,,,0.00,Wunderground v.1.15,2013-03-29 03:00:00,
2013-03-28 22:10:00,31.9,28.5,30.13,ESE,102,2.0,2.0,87,0.00,,,0.00,Wunderground v.1.15,2013-03-29 03:10:00,
2013-03-28 22:15:00,31.7,28.3,30.13,ESE,102,1.0,2.0,87,0.00,,,0.00,Wunderground v.1.15,2013-03-29 03:15:00,
2013-03-28 22:20:00,31.6,28.5,30.13,ESE,102,1.0,1.0,88,0.00,,,0.00,Wunderground v.1.15,2013-03-29 03:20:00,
2013-03-28 22:25:00,31.4,28.3,30.13,ESE,102,1.0,1.0,88,0.00,,,0.00,Wunderground v.1.15,2013-03-29 03:25:00,
2013-03-28 22:35:00,31.0,27.9,30.13,ESE,102,1.0,3.0,88,0.00,,,0.00,Wunderground v.1.15,2013-03-29 03:35:00,
2013-03-28 22:40:00,30.9,27.8,30.13,ESE,102,1.0,1.0,88,0.00,,,0.00,Wunderground v.1.15,2013-03-29 03:40:00,
2013-03-28 22:50:00,30.8,27.9,30.13,ESE,102,0.0,0.0,89,0.00,,,0.00,Wunderground v.1.15,2013-03-29 03:50:00,
2013-03-28 22:55:00,30.6,27.7,30.13,ESE,103,0.0,0.0,89,0.00,,,0.00,Wunderground v.1.15,2013-03-29 03:55:00,
2013-03-28 23:00:00,30.4,27.3,30.13,ESE,103,1.0,1.0,88,0.00,,,0.00,Wunderground v.1.15,2013-03-29 04:00:00,
2013-03-28 23:10:00,30.3,27.4,30.13,ESE,102,1.0,1.0,89,0.00,,,0.00,Wunderground v.1.15,2013-03-29 04:10:00,
2013-03-28 23:15:00,30.2,27.3,30.12,ESE,103,1.0,1.0,89,0.00,,,0.00,Wunderground v.1.15,2013-03-29 04:15:00,
2013-03-28 23:20:00,30.1,27.3,30.12,ESE,103,1.0,1.0,89,0.00,,,0.00,Wunderground v.1.15,2013-03-29 04:20:00,
2013-03-28 23:25:00,30.0,27.2,30.12,ESE,102,1.0,1.0,89,0.00,,,0.00,Wunderground v.1.15,2013-03-29 04:25:00,
2013-03-28 23:30:00,29.9,27.1,30.12,ESE,103,0.0,0.0,89,0.00,,,0.00,Wunderground v.1.15,2013-03-29 04:30:00,
2013-03-28 23:35:00,29.7,26.9,30.12,ESE,103,0.0,1.0,89,0.00,,,0.00,Wunderground v.1.15,2013-03-29 04:35:00,
2013-03-28 23:40:00,29.7,26.9,30.12,ESE,103,1.0,1.0,89,0.00,,,0.00,Wunderground v.1.15,2013-03-29 04:40:00,
2013-03-28 23:45:00,29.7,26.9,30.12,ESE,103,1.0,1.0,89,0.00,,,0.00,Wunderground v.1.15,2013-03-29 04:45:00,
2013-03-28 23:50:00,29.7,26.9,30.12,ESE,103,1.0,2.0,89,0.00,,,0.00,Wunderground v.1.15,2013-03-29 04:50:00,
2013-03-28 23:55:00,29.6,26.8,30.12,ESE,105,2.0,2.0,89,0.00,,,0.00,Wunderground v.1.15,2013-03-29 04:55:00,